Time,TemperatureF,DewpointF,PressureIn,WindDirection,WindDirectionDegrees,WindSpeedMPH,WindSpeedGustMPH,Humidity,HourlyPrecipIn,Conditions,Clouds,dailyrainin,SolarRadiationWatts/m^2,SoftwareType,DateUTC
2013-06-17 00:00:00,59.0,52.0,-100.00,South,180,1.0,-999.0,77,-99.99,,,-99.99,0.000000,,2013-06-17 04:00:00,
2013-06-17 00:34:00,59.0,52.0,-100.00,South,180,1.0,-999.0,77,-99.99,,,-99.99,0.000000,,2013-06-17 04:34:00,
2013-06-17 00:43:00,59.0,52.0,-100.00,South,180,1.0,-999.0,77,-99.99,,,-99.99,0.000000,,2013-06-17 04:43:00,
2013-06-17 00:53:00,59.0,52.0,-100.00,South,180,1.0,-999.0,77,-99.99,,,-99.99,0.000000,,2013-06-17 04:53:00,
2013-06-17 01:00:00,57.0,53.0,-100.00,WNW,292,0.0,-999.0,85,-99.99,,,-99.99,0.000000,,2013-06-17 05:00:00,
2013-06-17 01:33:00,57.0,53.0,-100.00,WNW,292,0.0,-999.0,85,-99.99,,,-99.99,0.000000,,2013-06-17 05:33:00,
2013-06-17 01:44:00,57.0,53.0,-100.00,WNW,292,0.0,-999.0,85,-99.99,,,-99.99,0.000000,,2013-06-17 05:44:00,
2013-06-17 01:53:00,57.0,53.0,-100.00,WNW,292,0.0,-999.0,85,-99.99,,,-99.99,0.000000,,2013-06-17 05:53:00,
2013-06-17 02:00:00,57.0,53.0,-100.00,WNW,292,0.0,-999.0,85,-99.99,,,-99.99,0.000000,,2013-06-17 06:00:00,
2013-06-17 02:33:00,57.0,53.0,-100.00,WNW,292,0.0,-999.0,85,-99.99,,,-99.99,0.000000,,2013-06-17 06:33:00,
2013-06-17 02:43:00,57.0,53.0,-100.00,WNW,292,0.0,-999.0,85,-99.99,,,-99.99,0.000000,,2013-06-17 06:43:00,
2013-06-17 02:53:00,57.0,53.0,-100.00,WNW,292,0.0,-999.0,85,-99.99,,,-99.99,0.000000,,2013-06-17 06:53:00,
2013-06-17 03:00:00,57.0,54.0,-100.00,SE,135,1.0,-999.0,89,-99.99,,,-99.99,0.000000,,2013-06-17 07:00:00,
2013-06-17 03:33:00,57.0,54.0,-100.00,SE,135,1.0,-999.0,89,-99.99,,,-99.99,0.000000,,2013-06-17 07:33:00,
2013-06-17 03:43:00,57.0,54.0,-100.00,SE,135,1.0,-999.0,89,-99.99,,,-99.99,0.000000,,2013-06-17 07:43:00,
2013-06-17 03:53:00,57.0,54.0,-100.00,SE,135,1.0,-999.0,89,-99.99,,,-99.99,0.000000,,2013-06-17 07:53:00,
2013-06-17 04:00:00,56.0,54.0,-100.00,SSW,202,1.0,-999.0,90,-99.99,,,-99.99,0.000000,,2013-06-17 08:00:00,
2013-06-17 04:34:00,56.0,54.0,-100.00,SSW,202,1.0,-999.0,90,-99.99,,,-99.99,0.000000,,2013-06-17 08:34:00,
2013-06-17 04:43:00,56.0,54.0,-100.00,SSW,202,1.0,-999.0,90,-99.99,,,-99.99,0.000000,,2013-06-17 08:43:00,
2013-06-17 04:53:00,56.0,54.0,-100.00,SSW,202,1.0,-999.0,90,-99.99,,,-99.99,0.000000,,2013-06-17 08:53:00,
2013-06-17 05:00:00,56.0,54.0,-100.00,WSW,247,1.0,-999.0,94,-99.99,,,-99.99,0.000000,,2013-06-17 09:00:00,
2013-06-17 05:34:00,56.0,54.0,-100.00,WSW,247,1.0,-999.0,94,-99.99,,,-99.99,0.000000,,2013-06-17 09:34:00,
2013-06-17 05:44:00,56.0,54.0,-100.00,WSW,247,1.0,-999.0,94,-99.99,,,-99.99,0.000000,,2013-06-17 09:44:00,
2013-06-17 05:53:00,56.0,54.0,-100.00,WSW,247,1.0,-999.0,94,-99.99,,,-99.99,0.000000,,2013-06-17 09:53:00,
2013-06-17 06:00:00,55.0,54.0,-100.00,West,270,1.0,-999.0,94,-99.99,,,-99.99,1.160000,,2013-06-17 10:00:00,
2013-06-17 06:33:00,55.0,54.0,-100.00,West,270,1.0,-999.0,94,-99.99,,,-99.99,1.160000,,2013-06-17 10:33:00,
2013-06-17 06:43:00,55.0,54.0,-100.00,West,270,1.0,-999.0,94,-99.99,,,-99.99,1.160000,,2013-06-17 10:43:00,
2013-06-17 06:54:00,55.0,54.0,-100.00,West,270,1.0,-999.0,94,-99.99,,,-99.99,1.160000,,2013-06-17 10:54:00,
2013-06-17 07:00:00,56.0,54.0,-100.00,SSW,202,0.0,-999.0,93,-99.99,,,-99.99,78.879997,,2013-06-17 11:00:00,
2013-06-17 07:33:00,56.0,54.0,-100.00,SSW,202,0.0,-999.0,93,-99.99,,,-99.99,78.879997,,2013-06-17 11:33:00,
2013-06-17 07:43:00,56.0,54.0,-100.00,SSW,202,0.0,-999.0,93,-99.99,,,-99.99,78.879997,,2013-06-17 11:43:00,
2013-06-17 07:53:00,56.0,54.0,-100.00,SSW,202,0.0,-999.0,93,-99.99,,,-99.99,78.879997,,2013-06-17 11:53:00,
2013-06-17 08:00:00,59.0,55.0,-100.00,SE,135,0.0,-999.0,87,-99.99,,,-99.99,107.879997,,2013-06-17 12:00:00,
2013-06-17 08:33:00,59.0,55.0,-100.00,SE,135,0.0,-999.0,87,-99.99,,,-99.99,107.879997,,2013-06-17 12:33:00,
2013-06-17 08:43:00,59.0,55.0,-100.00,SE,135,0.0,-999.0,87,-99.99,,,-99.99,107.879997,,2013-06-17 12:43:00,
2013-06-17 08:53:00,59.0,55.0,-100.00,SE,135,0.0,-999.0,87,-99.99,,,-99.99,107.879997,,2013-06-17 12:53:00,
2013-06-17 09:00:00,63.0,55.0,-100.00,SE,135,0.0,-999.0,77,-99.99,,,-99.99,296.959991,,2013-06-17 13:00:00,
2013-06-17 09:33:00,63.0,55.0,-100.00,SE,135,0.0,-999.0,77,-99.99,,,-99.99,296.959991,,2013-06-17 13:33:00,
2013-06-17 09:43:00,63.0,55.0,-100.00,SE,135,0.0,-999.0,77,-99.99,,,-99.99,296.959991,,2013-06-17 13:43:00,
2013-06-17 09:53:00,63.0,55.0,-100.00,SE,135,0.0,-999.0,77,-99.99,,,-99.99,296.959991,,2013-06-17 13:53:00,
2013-06-17 10:00:00,62.0,56.0,-100.00,West,270,1.0,-999.0,80,-99.99,,,-99.99,261.000000,,2013-06-17 14:00:00,
2013-06-17 10:44:00,62.0,56.0,-100.00,West,270,1.0,-999.0,80,-99.99,,,-99.99,261.000000,,2013-06-17 14:44:00,
2013-06-17 10:54:00,62.0,56.0,-100.00,West,270,1.0,-999.0,80,-99.99,,,-99.99,261.000000,,2013-06-17 14:54:00,
2013-06-17 11:00:00,61.0,55.0,-100.00,WNW,292,1.0,-999.0,81,-99.99,,,-99.99,461.679993,,2013-06-17 15:00:00,
2013-06-17 11:43:00,61.0,55.0,-100.00,WNW,292,1.0,-999.0,81,-99.99,,,-99.99,461.679993,,2013-06-17 15:43:00,
2013-06-17 11:53:00,61.0,55.0,-100.00,WNW,292,1.0,-999.0,81,-99.99,,,-99.99,461.679993,,2013-06-17 15:53:00,
2013-06-17 12:00:00,64.0,55.0,-100.00,WNW,292,1.0,-999.0,72,-99.99,,,-99.99,670.479980,,2013-06-17 16:00:00,
2013-06-17 12:43:00,64.0,55.0,-100.00,WNW,292,1.0,-999.0,72,-99.99,,,-99.99,670.479980,,2013-06-17 16:43:00,
2013-06-17 12:54:00,64.0,55.0,-100.00,WNW,292,1.0,-999.0,72,-99.99,,,-99.99,670.479980,,2013-06-17 16:54:00,
2013-06-17 13:00:00,65.0,56.0,-100.00,WNW,292,3.0,-999.0,71,-99.99,,,-99.99,844.479980,,2013-06-17 17:00:00,
2013-06-17 13:43:00,65.0,56.0,-100.00,WNW,292,3.0,-999.0,71,-99.99,,,-99.99,844.479980,,2013-06-17 17:43:00,
2013-06-17 13:52:00,65.0,56.0,-100.00,WNW,292,3.0,-999.0,71,-99.99,,,-99.99,844.479980,,2013-06-17 17:52:00,
2013-06-17 14:00:00,67.0,56.0,-100.00,West,270,3.0,-999.0,68,-99.99,,,-99.99,893.200012,,2013-06-17 18:00:00,
2013-06-17 14:43:00,67.0,56.0,-100.00,West,270,3.0,-999.0,68,-99.99,,,-99.99,893.200012,,2013-06-17 18:43:00,
2013-06-17 14:53:00,67.0,56.0,-100.00,West,270,3.0,-999.0,68,-99.99,,,-99.99,893.200012,,2013-06-17 18:53:00,
2013-06-17 15:00:00,65.0,55.0,-100.00,WNW,292,6.0,-999.0,69,-99.99,,,-99.99,880.440002,,2013-06-17 19:00:00,
2013-06-17 15:43:00,65.0,55.0,-100.00,WNW,292,6.0,-999.0,69,-99.99,,,-99.99,880.440002,,2013-06-17 19:43:00,
2013-06-17 15:54:00,65.0,55.0,-100.00,WNW,292,6.0,-999.0,69,-99.99,,,-99.99,880.440002,,2013-06-17 19:54:00,
2013-06-17 16:00:00,66.0,54.0,-100.00,WNW,292,6.0,-999.0,66,-99.99,,,-99.99,816.640015,,2013-06-17 20:00:00,
2013-06-17 16:43:00,66.0,54.0,-100.00,WNW,292,6.0,-999.0,66,-99.99,,,-99.99,816.640015,,2013-06-17 20:43:00,
2013-06-17 16:52:00,66.0,54.0,-100.00,WNW,292,6.0,-999.0,66,-99.99,,,-99.99,816.640015,,2013-06-17 20:52:00,
2013-06-17 17:00:00,68.0,55.0,-100.00,WNW,292,5.0,-999.0,63,-99.99,,,-99.99,638.000000,,2013-06-17 21:00:00,
2013-06-17 17:43:00,68.0,55.0,-100.00,WNW,292,5.0,-999.0,63,-99.99,,,-99.99,638.000000,,2013-06-17 21:43:00,
2013-06-17 17:52:00,68.0,55.0,-100.00,WNW,292,5.0,-999.0,63,-99.99,,,-99.99,638.000000,,2013-06-17 21:52:00,
2013-06-17 18:00:00,67.0,56.0,-100.00,WSW,247,2.0,-999.0,68,-99.99,,,-99.99,330.600006,,2013-06-17 22:00:00,
2013-06-17 18:34:00,67.0,56.0,-100.00,WSW,247,2.0,-999.0,68,-99.99,,,-99.99,330.600006,,2013-06-17 22:34:00,
2013-06-17 18:43:00,67.0,56.0,-100.00,WSW,247,2.0,-999.0,68,-99.99,,,-99.99,330.600006,,2013-06-17 22:43:00,
2013-06-17 18:53:00,67.0,56.0,-100.00,WSW,247,2.0,-999.0,68,-99.99,,,-99.99,330.600006,,2013-06-17 22:53:00,
2013-06-17 19:00:00,67.0,56.0,-100.00,SSW,202,3.0,-999.0,67,-99.99,,,-99.99,346.839996,,2013-06-17 23:00:00,
2013-06-17 19:33:00,67.0,56.0,-100.00,SSW,202,3.0,-999.0,67,-99.99,,,-99.99,346.839996,,2013-06-17 23:33:00,
2013-06-17 19:43:00,67.0,56.0,-100.00,SSW,202,3.0,-999.0,67,-99.99,,,-99.99,346.839996,,2013-06-17 23:43:00,
2013-06-17 19:53:00,67.0,56.0,-100.00,SSW,202,3.0,-999.0,67,-99.99,,,-99.99,346.839996,,2013-06-17 23:53:00,
2013-06-17 20:00:00,67.0,55.0,-100.00,SE,135,4.0,-999.0,67,-99.99,,,-99.99,244.759995,,2013-06-18 00:00:00,
2013-06-17 20:33:00,67.0,55.0,-100.00,SE,135,4.0,-999.0,67,-99.99,,,-99.99,244.759995,,2013-06-18 00:33:00,
2013-06-17 20:43:00,67.0,55.0,-100.00,SE,135,4.0,-999.0,67,-99.99,,,-99.99,244.759995,,2013-06-18 00:43:00,
2013-06-17 20:52:00,67.0,55.0,-100.00,SE,135,4.0,-999.0,67,-99.99,,,-99.99,244.759995,,2013-06-18 00:52:00,
2013-06-17 21:00:00,62.0,54.0,-100.00,NE,45,5.0,-999.0,76,-99.99,,,-99.99,68.440002,,2013-06-18 01:00:00,
2013-06-17 21:44:00,62.0,54.0,-100.00,NE,45,5.0,-999.0,76,-99.99,,,-99.99,68.440002,,2013-06-18 01:44:00,
2013-06-17 21:53:00,62.0,54.0,-100.00,NE,45,5.0,-999.0,76,-99.99,,,-99.99,68.440002,,2013-06-18 01:53:00,
2013-06-17 22:00:00,60.0,53.0,-100.00,NE,45,5.0,-999.0,77,-99.99,,,-99.99,4.640000,,2013-06-18 02:00:00,
2013-06-17 22:43:00,60.0,53.0,-100.00,NE,45,5.0,-999.0,77,-99.99,,,-99.99,4.640000,,2013-06-18 02:43:00,
2013-06-17 22:53:00,60.0,53.0,-100.00,NE,45,5.0,-999.0,77,-99.99,,,-99.99,4.640000,,2013-06-18 02:53:00,
2013-06-17 23:00:00,59.0,53.0,-100.00,NE,45,1.0,-999.0,81,-99.99,,,-99.99,0.000000,,2013-06-18 03:00:00,
2013-06-17 23:43:00,59.0,53.0,-100.00,NE,45,1.0,-999.0,81,-99.99,,,-99.99,0.000000,,2013-06-18 03:43:00,
2013-06-17 23:53:00,59.0,53.0,-100.00,NE,45,1.0,-999.0,81,-99.99,,,-99.99,0.000000,,2013-06-18 03:53:00,